Voltar ao catálogo

CZ-6A DEB

AtivoSSO
NORAD 55884·DEBRIS·🇨🇳 China

Lançado Nov 11, 2022 de Taiyuan Satellite Launch Center

Loading…

Próximas Passagens (próximas 24 horas)

TLE

AtualizadoSource: Space-Track

Época: Sep 14, 2026, 11:23 UTC

1 55884U 22151AAG 26257.47462263  .00001277  00000-0  66432-3 0  9998
2 55884  98.8420 260.4294 0051426  79.3972 281.2989 14.15763131183367

Acompanhe CZ-6A DEB em tempo real com AllMySat

Download on the App Store